Regional Weather Roundup
Issued by NWS

Home | Current Version | Previous Version | Graphics & Text | Print | Product List | Glossary Off
Versions: 1 2 3 4 5 6 7 8 9 10 11 12 13 14 15 16 17 18 19 20 21 22 23 24 25 26 27 28 29 30 31 32 33 34 35 36 37 38 39 40 41 42 43 44 45 46 47 48 49 50

000
ASUS43 KOAX 011210
RWRNE

WEATHER ROUNDUP FOR NEBRASKA
NATIONAL WEATHER SERVICE OMAHA NE
600 AM CST SUN FEB 01 2015

NOTES: SATELLITE DATA IS BEING USED TO AUGMENT CLOUD COVER ABOVE
       12000 FEET.
       "FAIR" INDICATES FEW OR NO CLOUDS BELOW 12,000 FEET WITH NO
       SIGNIFICANT WEATHER AND/OR OBSTRUCTIONS TO VISIBILITY.

  * THESE STATIONS DO NOT REPORT WEATHER SUCH AS RAIN...SNOW OR FOG.

NEZ001>004-019>022-054>056-011300-
NEBRASKA PANHANDLE

CITY           SKY/WX    TMP DP  RH WIND       PRES   REMARKS
SCOTTSBLUFF    MOCLDY    20  14  77 N13       30.15R WCI   7
6HR MIN TEMP:  20; 6HR MAX TEMP:  25;

ALLIANCE       MOCLDY     7   3  84 N13       30.13R WCI  -9
6HR MIN TEMP:   7; 6HR MAX TEMP:  18; 6HR PCP: TRACE;

CHADRON        LGT SNOW   8   4  83 N9        30.25R FOG     WCI  -5
6HR MIN TEMP:   8; 6HR MAX TEMP:  16; 6HR PCP: TRACE;

KIMBALL        CLOUDY    19  14  82 N15G23    30.05R WCI   5
SIDNEY         CLOUDY    16  12  84 N16       30.08R WCI   1
6HR MIN TEMP:  16; 6HR MAX TEMP:  21; 6HR PCP: TRACE;

$$

NEZ057>060-069>072-079>082-011300-
SOUTHWEST NEBRASKA

CITY           SKY/WX    TMP DP  RH WIND       PRES   REMARKS
NORTH PLATTE   MIX PCPN  11   5  77 N17G28    30.12R WCI  -6
6HR MIN TEMP:  11; 6HR MAX TEMP:  19; 6HR PCP:  0.02;

IMPERIAL       PTCLDY    14   8  77 N22G31    30.10R WCI  -4
6HR MIN TEMP:  14; 6HR MAX TEMP:  22; 6HR PCP: TRACE;

LEXINGTON      CLOUDY    13   9  83 N26G36    30.07R HAZE    WCI  -7
MCCOOK         CLOUDY    16   9  74 NW25G33   30.07R WCI  -3
6HR MIN TEMP:  16; 6HR MAX TEMP:  23; 6HR PCP:  0.01;

OGALLALA       PTCLDY    10   6  82 N17       30.12F WCI  -7
$$

NEZ005>010-023>029-035>040-094-011300-
NORTH CENTRAL NEBRASKA

CITY           SKY/WX    TMP DP  RH WIND       PRES   REMARKS
VALENTINE      LGT SNOW   4  -1  80 N18G28    30.21R WCI -16
6HR MIN TEMP:   4; 6HR MAX TEMP:  13; 6HR PCP:  0.08;

AINSWORTH      LGT SNOW   5   1  81 N23       30.17R WCI -17
BROKEN BOW     BLWGSNOW   9   4  80 N35G44    30.06R VSB 3/4 WCI -15
6HR MIN TEMP:   9; 6HR MAX TEMP:  21; 6HR PCP:  0.01;

O`NEILL        LGT SNOW   6   2  85 N26G33    30.14R WCI -17
ORD            LGT SNOW   8   3  80 N26G37    30.07R VSB 3/4 WCI -14
6HR MIN TEMP:   8; 6HR MAX TEMP:  23; 6HR PCP: TRACE;

THEDFORD       LGT SNOW   8   4  83 N23G29    30.14R WCI -12
$$

NEZ041-046>049-061>064-073>077-083>087-011300-
SOUTH CENTRAL NEBRASKA

CITY           SKY/WX    TMP DP  RH WIND       PRES   REMARKS
GRAND ISLAND   SNOW      12   9  87 N26G38    30.00R VSB 1/2 WCI  -8
6HR MIN TEMP:  12; 6HR MAX TEMP:  27; 6HR PCP:  0.02;

AURORA         LGT SNOW  15  13  91 N31G40    29.97R VSB 1   WCI  -6
HASTINGS       LGT SNOW  14  10  84 N31G38    29.97R VSB 3/4 WCI  -7
6HR MIN TEMP:  14; 6HR MAX TEMP:  31; 6HR PCP:  0.01;

HEBRON         LGT SNOW  22  19  86 N20G26    29.89R WCI   7
HOLDREGE       LGT SNOW  14  11  86 N26G38    30.01R WCI  -6
KEARNEY *      CLOUDY    12   7  79 N25G36    30.01R VSB 1   WCI  -8
YORK           LGT SNOW  18  16  93 N22G32    29.92R WCI   0
$$

NEZ011>018-030>034-042>045-011300-
NORTHEAST NEBRASKA

CITY           SKY/WX    TMP DP  RH WIND       PRES   REMARKS
NORFOLK        LGT SNOW  17  13  84 N26G36    29.99R VSB 1   WCI  -2
6HR MIN TEMP:  17; 6HR MAX TEMP:  29; 6HR PCP:  0.04;

ALBION         LGT SNOW  11   6  81 N22G31    30.01R WCI  -8
BLAIR          LGT SNOW  28  26  93 N23G29    29.81S WCI  13
FREMONT        LGT SNOW  27  25  93 N13G24    29.89R WCI  16
TEKAMAH        LGT SNOW  26  22  84 N25       29.90R VSB 1   WCI  11
6HR MIN TEMP:  26; 6HR MAX TEMP:  33; 6HR PCP:  0.07;

WAYNE          LGT SNOW  20  17  88 N17G32    30.00R WCI   5
$$

NEZ050>053-065>068-078-088>093-011300-
SOUTHEAST NEBRASKA

CITY           SKY/WX    TMP DP  RH WIND       PRES   REMARKS
LINCOLN        LGT SNOW  26  23  88 N29       29.85R VSB 1   WCI  10
6HR MIN TEMP:  26; 6HR MAX TEMP:  32; 6HR PCP:  0.11;

OMAHA EPPLEY   LGT SNOW  29  28  96 N21       29.82R FOG     WCI  16
6HR MIN TEMP:  29; 6HR MAX TEMP:  34; 6HR PCP:  0.18;

BEATRICE       LGT SNOW  30  29  96 N20       29.81R WCI  18
FALLS CITY     LGT SNOW  32  31  96 N6        29.74S FOG     WCI  26
6HR MIN TEMP:  32; 6HR MAX TEMP:  32; 6HR PCP:  0.11;

NEBRASKA CITY  LGT SNOW  32  32 100 N7        29.76S WCI  26
PLATTSMOUTH    LGT SNOW  32  31  96 N5        29.78R WCI  27
$$

NEZ044-045-051>053-067-011300-
OMAHA AREA

CITY           SKY/WX    TMP DP  RH WIND       PRES   REMARKS
OMAHA EPPLEY   LGT SNOW  29  28  96 N21       29.82R FOG     WCI  16
6HR MIN TEMP:  29; 6HR MAX TEMP:  34; 6HR PCP:  0.18;

BLAIR          LGT SNOW  28  26  93 N23G29    29.81S WCI  13
FREMONT        LGT SNOW  27  25  93 N13G24    29.89R WCI  16
MILLARD        LGT SNOW  31  29  92 CALM      29.82R
OFFUTT AFB     LGT SNOW  32  30  93 N15G26    29.80R FOG     WCI  22
PLATTSMOUTH    LGT SNOW  32  31  96 N5        29.78R WCI  27
WAHOO          LGT SNOW  26  23  88 MISG      29.87R
$$


USA.gov is the U.S. government's official web portal to all federal, state and local government web resources and services.